| time (UTC) | temp F | wind direction | speed MPH | gust MPH | rain 1hr in | rain 24hr in | rain mn in | humidity % | barometer mb |
| 20260507235335 | 60 | 357 | 0.0 | 0.0 | 0.00 | 0.00 | 0.00 | 84 | 1015.0 |
| 20260507234840 | 60 | 357 | 0.0 | 0.0 | 0.00 | 0.00 | 0.00 | 84 | 1015.0 |
| 20260507234331 | 60 | 357 | 0.0 | 0.0 | 0.00 | 0.00 | 0.00 | 84 | 1015.0 |
| 20260507233836 | 60 | 357 | 0.0 | 0.0 | 0.00 | 0.00 | 0.00 | 84 | 1015.1 |
| 20260507232839 | 60 | 2 | 0.0 | 0.0 | 0.00 | 0.00 | 0.00 | 85 | 1015.0 |
| 20260507231838 | 61 | 17 | 0.0 | 0.0 | 0.00 | 0.00 | 0.00 | 85 | 1015.1 |
| 20260507231329 | 61 | 2 | 0.0 | 0.0 | 0.00 | 0.00 | 0.00 | 85 | 1015.1 |
| 20260507230831 | 61 | 2 | 0.0 | 0.0 | 0.00 | 0.00 | 0.00 | 85 | 1015.2 |
| 20260507230342 | 61 | 2 | 0.0 | 0.0 | 0.00 | 0.00 | 0.00 | 85 | 1015.1 |
| 20260507225839 | 61 | 20 | 0.0 | 0.0 | 0.00 | 0.00 | 0.00 | 85 | 1015.1 |
| 20260507224840 | 61 | 12 | 0.0 | 0.0 | 0.00 | 0.00 | 0.00 | 85 | 1015.1 |
| 20260507224330 | 61 | 11 | 0.0 | 0.0 | 0.00 | 0.00 | 0.00 | 84 | 1015.1 |
| 20260507222837 | 61 | 7 | 0.0 | 0.0 | 0.00 | 0.00 | 0.00 | 84 | 1015.2 |
| 20260507222331 | 61 | 7 | 0.0 | 0.0 | 0.00 | 0.00 | 0.00 | 84 | 1015.1 |
| 20260507221838 | 61 | 7 | 0.0 | 0.0 | 0.00 | 0.00 | 0.00 | 84 | 1015.1 |
| 20260507221331 | 61 | 7 | 0.0 | 0.0 | 0.00 | 0.00 | 0.00 | 83 | 1015.0 |
| 20260507220330 | 62 | 21 | 0.0 | 0.0 | 0.00 | 0.00 | 0.00 | 83 | 1015.0 |
| 20260507215843 | 62 | 26 | 0.0 | 0.0 | 0.00 | 0.00 | 0.00 | 83 | 1015.0 |
| 20260507215334 | 62 | 26 | 0.0 | 0.0 | 0.00 | 0.00 | 0.00 | 82 | 1014.9 |
| 20260507214842 | 62 | 26 | 0.0 | 0.0 | 0.00 | 0.00 | 0.00 | 82 | 1014.9 |
| 20260507213844 | 62 | 26 | 0.0 | 0.0 | 0.00 | 0.00 | 0.00 | 82 | 1015.0 |
| 20260507213335 | 62 | 27 | 0.0 | 0.0 | 0.00 | 0.00 | 0.00 | 82 | 1015.0 |
| 20260507212842 | 62 | 27 | 0.0 | 0.0 | 0.00 | 0.00 | 0.00 | 82 | 1014.9 |
| 20260507212330 | 62 | 32 | 0.0 | 0.0 | 0.00 | 0.00 | 0.00 | 82 | 1014.9 |
| 20260507211837 | 62 | 33 | 0.0 | 0.0 | 0.00 | 0.00 | 0.00 | 82 | 1014.9 |
| 20260507211330 | 62 | 125 | 0.0 | 0.0 | 0.00 | 0.00 | 0.00 | 81 | 1014.8 |
| 20260507210837 | 62 | 125 | 0.0 | 0.0 | 0.00 | 0.00 | 0.00 | 82 | 1014.9 |
| 20260507210347 | 62 | 125 | 0.0 | 0.0 | 0.00 | 0.00 | 0.00 | 82 | 1014.9 |
| 20260507205841 | 62 | 125 | 0.0 | 0.0 | 0.00 | 0.00 | 0.00 | 82 | 1014.8 |
| 20260507204838 | 62 | 125 | 0.0 | 0.0 | 0.00 | 0.00 | 0.00 | 81 | 1014.8 |
| 20260507204331 | 62 | 125 | 0.0 | 0.0 | 0.00 | 0.00 | 0.00 | 81 | 1014.7 |
| 20260507203840 | 62 | 125 | 0.0 | 0.0 | 0.00 | 0.00 | 0.00 | 81 | 1014.7 |
| 20260507203332 | 62 | 125 | 0.0 | 0.0 | 0.00 | 0.00 | 0.00 | 81 | 1014.6 |
| 20260507202838 | 62 | 125 | 0.0 | 0.0 | 0.00 | 0.00 | 0.00 | 81 | 1014.5 |
| 20260507202329 | 62 | 125 | 0.0 | 0.0 | 0.00 | 0.00 | 0.00 | 81 | 1014.5 |
| 20260507201833 | 62 | 125 | 0.0 | 0.0 | 0.00 | 0.00 | 0.00 | 81 | 1014.4 |
| 20260507201342 | 62 | 125 | 0.0 | 0.0 | 0.00 | 0.00 | 0.00 | 81 | 1014.4 |
| 20260507200829 | 63 | 129 | 0.0 | 0.0 | 0.00 | 0.00 | 0.00 | 80 | 1014.4 |
| 20260507200342 | 63 | 129 | 0.0 | 0.0 | 0.00 | 0.00 | 0.00 | 80 | 1014.3 |
| 20260507195838 | 63 | 129 | 0.0 | 0.0 | 0.00 | 0.00 | 0.00 | 80 | 1014.3 |
| 20260507195347 | 63 | 129 | 0.0 | 0.0 | 0.00 | 0.00 | 0.00 | 80 | 1014.2 |
| 20260507194832 | 63 | 129 | 0.0 | 0.0 | 0.00 | 0.00 | 0.00 | 80 | 1014.1 |
| 20260507194343 | 63 | 129 | 0.0 | 0.0 | 0.00 | 0.00 | 0.00 | 80 | 1014.0 |
| 20260507193829 | 63 | 129 | 0.0 | 0.0 | 0.00 | 0.00 | 0.00 | 80 | 1014.0 |
| 20260507193339 | 63 | 129 | 0.0 | 0.0 | 0.00 | 0.00 | 0.00 | 80 | 1014.0 |
| 20260507192844 | 63 | 129 | 0.0 | 0.0 | 0.00 | 0.00 | 0.00 | 79 | 1014.0 |
| 20260507192336 | 64 | 129 | 0.0 | 0.0 | 0.00 | 0.00 | 0.00 | 79 | 1013.9 |
| 20260507191845 | 64 | 129 | 0.0 | 0.0 | 0.00 | 0.00 | 0.00 | 79 | 1013.8 |
| 20260507191336 | 64 | 128 | 0.0 | 0.0 | 0.00 | 0.00 | 0.00 | 79 | 1013.8 |
| 20260507190842 | 64 | 128 | 0.0 | 0.0 | 0.00 | 0.00 | 0.00 | 79 | 1013.7 |
| 20260507190335 | 64 | 128 | 0.0 | 0.0 | 0.00 | 0.00 | 0.00 | 79 | 1013.7 |
| 20260507185829 | 64 | 128 | 0.0 | 0.0 | 0.00 | 0.00 | 0.00 | 79 | 1013.7 |
| 20260507185344 | 64 | 129 | 0.0 | 0.0 | 0.00 | 0.00 | 0.00 | 79 | 1013.8 |
| 20260507184848 | 64 | 128 | 0.0 | 0.0 | 0.00 | 0.00 | 0.00 | 78 | 1013.8 |
| 20260507184338 | 64 | 126 | 0.0 | 0.0 | 0.00 | 0.00 | 0.00 | 78 | 1013.8 |
| 20260507183844 | 64 | 125 | 0.0 | 0.0 | 0.00 | 0.00 | 0.00 | 78 | 1013.8 |
| 20260507183337 | 64 | 96 | 0.0 | 0.0 | 0.00 | 0.00 | 0.00 | 77 | 1013.8 |
| 20260507181845 | 64 | 115 | 0.0 | 0.0 | 0.00 | 0.00 | 0.00 | 78 | 1013.6 |
| 20260507175839 | 64 | 113 | 0.0 | 0.0 | 0.00 | 0.00 | 0.00 | 77 | 1013.4 |
| 20260507175348 | 65 | 85 | 0.0 | 0.0 | 0.00 | 0.00 | 0.00 | 78 | 1013.4 |
| 20260507174345 | 65 | 84 | 0.0 | 5.0 | 0.00 | 0.00 | 0.00 | 77 | 1013.2 |
| 20260507173830 | 65 | 80 | 1.0 | 5.0 | 0.00 | 0.00 | 0.00 | 78 | 1013.2 |
| 20260507173343 | 64 | 71 | 2.0 | 5.0 | 0.00 | 0.00 | 0.00 | 78 | 1013.3 |
| 20260507172849 | 65 | 78 | 2.0 | 7.0 | 0.00 | 0.00 | 0.00 | 77 | 1013.3 |
| 20260507172341 | 65 | 99 | 3.0 | 9.0 | 0.00 | 0.00 | 0.00 | 77 | 1013.3 |
| 20260507171846 | 65 | 130 | 4.0 | 9.0 | 0.00 | 0.00 | 0.00 | 77 | 1013.3 |
| 20260507170847 | 65 | 67 | 4.0 | 9.0 | 0.00 | 0.00 | 0.00 | 78 | 1013.3 |
| 20260507170339 | 65 | 101 | 6.0 | 9.0 | 0.00 | 0.00 | 0.00 | 77 | 1013.3 |
| 20260507165837 | 65 | 116 | 3.0 | 10.0 | 0.00 | 0.00 | 0.00 | 78 | 1013.4 |
| 20260507164330 | 65 | 128 | 5.0 | 9.0 | 0.00 | 0.00 | 0.00 | 77 | 1013.3 |
| 20260507161842 | 65 | 104 | 4.0 | 8.0 | 0.00 | 0.00 | 0.00 | 76 | 1013.0 |
| 20260507161333 | 66 | 138 | 4.0 | 9.0 | 0.00 | 0.00 | 0.00 | 76 | 1013.0 |
| 20260507160840 | 66 | 123 | 5.0 | 9.0 | 0.00 | 0.00 | 0.00 | 75 | 1012.9 |
| 20260507160332 | 66 | 49 | 0.0 | 1.0 | 0.00 | 0.00 | 0.00 | 75 | 1012.9 |
| 20260507155848 | 66 | 144 | 0.0 | 8.0 | 0.00 | 0.00 | 0.00 | 75 | 1012.9 |
| 20260507155339 | 66 | 157 | 4.0 | 9.0 | 0.00 | 0.00 | 0.00 | 74 | 1012.9 |
| 20260507154846 | 66 | 64 | 3.0 | 9.0 | 0.00 | 0.00 | 0.00 | 76 | 1012.9 |
| 20260507154337 | 65 | 151 | 4.0 | 9.0 | 0.00 | 0.00 | 0.00 | 76 | 1012.9 |
| 20260507153843 | 66 | 142 | 6.0 | 11.0 | 0.00 | 0.00 | 0.00 | 76 | 1013.0 |
| 20260507153333 | 66 | 142 | 6.0 | 11.0 | 0.00 | 0.00 | 0.00 | 75 | 1013.0 |
| 20260507152840 | 66 | 60 | 4.0 | 9.0 | 0.00 | 0.00 | 0.00 | 76 | 1012.9 |
| 20260507152331 | 66 | 59 | 4.0 | 13.0 | 0.00 | 0.00 | 0.00 | 77 | 1013.0 |
| 20260507151835 | 65 | 125 | 4.0 | 8.0 | 0.00 | 0.00 | 0.00 | 76 | 1012.9 |
| 20260507150834 | 66 | 115 | 5.0 | 11.0 | 0.00 | 0.00 | 0.00 | 76 | 1012.9 |
| 20260507145845 | 66 | 56 | 5.0 | 11.0 | 0.00 | 0.00 | 0.00 | 76 | 1013.0 |
| 20260507145335 | 66 | 123 | 5.0 | 11.0 | 0.00 | 0.00 | 0.00 | 76 | 1013.0 |
| 20260507144838 | 66 | 132 | 6.0 | 11.0 | 0.00 | 0.00 | 0.00 | 75 | 1013.1 |
| 20260507144329 | 66 | 58 | 6.0 | 15.0 | 0.00 | 0.00 | 0.00 | 76 | 1013.2 |
| 20260507143837 | 66 | 120 | 7.0 | 15.0 | 0.00 | 0.00 | 0.00 | 75 | 1013.2 |
| 20260507143348 | 66 | 102 | 6.0 | 11.0 | 0.00 | 0.00 | 0.00 | 75 | 1013.3 |
| 20260507142345 | 66 | 82 | 5.0 | 14.0 | 0.00 | 0.00 | 0.00 | 76 | 1013.5 |
| 20260507141832 | 66 | 113 | 5.0 | 13.0 | 0.00 | 0.00 | 0.00 | 77 | 1013.5 |
| 20260507140827 | 66 | 115 | 7.0 | 14.0 | 0.00 | 0.00 | 0.00 | 76 | 1013.7 |
| 20260507140340 | 66 | 94 | 6.0 | 14.0 | 0.00 | 0.00 | 0.00 | 76 | 1013.6 |
| 20260507135838 | 66 | 109 | 8.0 | 11.0 | 0.00 | 0.00 | 0.00 | 76 | 1013.6 |
| 20260507135329 | 66 | 114 | 7.0 | 11.0 | 0.00 | 0.00 | 0.00 | 76 | 1013.6 |
| 20260507134837 | 66 | 129 | 7.0 | 12.0 | 0.00 | 0.00 | 0.00 | 75 | 1013.7 |
| 20260507134331 | 66 | 83 | 7.0 | 12.0 | 0.00 | 0.00 | 0.00 | 75 | 1013.7 |
| 20260507133840 | 67 | 69 | 5.0 | 13.0 | 0.00 | 0.00 | 0.00 | 76 | 1013.6 |
| 20260507133331 | 67 | 100 | 7.0 | 13.0 | 0.00 | 0.00 | 0.00 | 74 | 1013.7 |
| 20260507132332 | 67 | 115 | 6.0 | 11.0 | 0.00 | 0.00 | 0.00 | 74 | 1014.0 |
| 20260507131835 | 66 | 53 | 5.0 | 14.0 | 0.00 | 0.00 | 0.00 | 74 | 1014.0 |
| 20260507131346 | 67 | 120 | 6.0 | 14.0 | 0.00 | 0.00 | 0.00 | 74 | 1014.0 |
| 20260507125846 | 67 | 115 | 6.0 | 13.0 | 0.00 | 0.00 | 0.00 | 73 | 1014.0 |
| 20260507125337 | 67 | 99 | 8.0 | 13.0 | 0.00 | 0.00 | 0.00 | 74 | 1014.1 |
| 20260507124844 | 67 | 109 | 6.0 | 12.0 | 0.00 | 0.00 | 0.00 | 74 | 1014.1 |
| 20260507123843 | 67 | 85 | 5.0 | 13.0 | 0.00 | 0.00 | 0.00 | 73 | 1014.1 |
| 20260507123338 | 67 | 116 | 7.0 | 12.0 | 0.00 | 0.00 | 0.00 | 73 | 1014.2 |
| 20260507122844 | 67 | 125 | 7.0 | 12.0 | 0.00 | 0.00 | 0.00 | 73 | 1014.2 |
| 20260507122337 | 67 | 137 | 8.0 | 12.0 | 0.00 | 0.00 | 0.00 | 72 | 1014.2 |
| 20260507121336 | 67 | 84 | 7.0 | 11.0 | 0.00 | 0.00 | 0.00 | 72 | 1014.3 |
| 20260507120843 | 67 | 71 | 5.0 | 12.0 | 0.00 | 0.00 | 0.00 | 72 | 1014.4 |
| 20260507115333 | 67 | 68 | 6.0 | 14.0 | 0.00 | 0.00 | 0.00 | 73 | 1014.6 |
| 20260507114841 | 67 | 123 | 7.0 | 15.0 | 0.00 | 0.00 | 0.00 | 73 | 1014.8 |
| 20260507114333 | 67 | 96 | 7.0 | 15.0 | 0.00 | 0.00 | 0.00 | 74 | 1014.8 |
| 20260507113840 | 67 | 113 | 5.0 | 13.0 | 0.00 | 0.00 | 0.00 | 74 | 1014.8 |
| 20260507113331 | 66 | 126 | 7.0 | 13.0 | 0.00 | 0.00 | 0.00 | 74 | 1014.8 |
| 20260507112334 | 67 | 100 | 5.0 | 14.0 | 0.00 | 0.00 | 0.00 | 74 | 1014.9 |
| 20260507111840 | 67 | 149 | 7.0 | 14.0 | 0.00 | 0.00 | 0.00 | 74 | 1014.9 |
| 20260507111332 | 67 | 75 | 7.0 | 14.0 | 0.00 | 0.00 | 0.00 | 74 | 1014.9 |
| 20260507110838 | 67 | 125 | 5.0 | 13.0 | 0.00 | 0.00 | 0.00 | 74 | 1015.0 |
| 20260507110329 | 67 | 82 | 5.0 | 12.0 | 0.00 | 0.00 | 0.00 | 74 | 1015.0 |
| 20260507105848 | 67 | 88 | 6.0 | 12.0 | 0.00 | 0.00 | 0.00 | 73 | 1015.0 |
| 20260507105338 | 67 | 123 | 6.0 | 14.0 | 0.00 | 0.00 | 0.00 | 73 | 1015.0 |
| 20260507104844 | 67 | 60 | 6.0 | 13.0 | 0.00 | 0.00 | 0.00 | 72 | 1015.1 |
| 20260507104336 | 67 | 142 | 7.0 | 14.0 | 0.00 | 0.00 | 0.00 | 71 | 1015.2 |
| 20260507103839 | 67 | 62 | 6.0 | 13.0 | 0.00 | 0.00 | 0.00 | 72 | 1015.1 |
| 20260507103330 | 67 | 97 | 6.0 | 13.0 | 0.00 | 0.00 | 0.00 | 71 | 1015.1 |
| 20260507102836 | 66 | 117 | 6.0 | 13.0 | 0.00 | 0.00 | 0.00 | 73 | 1015.0 |
| 20260507101835 | 67 | 115 | 6.0 | 14.0 | 0.00 | 0.00 | 0.00 | 73 | 1015.2 |
| 20260507101345 | 67 | 87 | 5.0 | 14.0 | 0.00 | 0.00 | 0.00 | 74 | 1015.2 |
| 20260507100830 | 66 | 88 | 4.0 | 12.0 | 0.00 | 0.00 | 0.00 | 75 | 1015.2 |
| 20260507100341 | 66 | 111 | 7.0 | 12.0 | 0.00 | 0.00 | 0.00 | 75 | 1015.3 |
| 20260507095839 | 66 | 98 | 5.0 | 10.0 | 0.00 | 0.00 | 0.00 | 76 | 1015.2 |
| 20260507095331 | 66 | 63 | 5.0 | 10.0 | 0.00 | 0.00 | 0.00 | 76 | 1015.3 |
| 20260507094834 | 66 | 96 | 5.0 | 11.0 | 0.00 | 0.00 | 0.00 | 76 | 1015.2 |
| 20260507094330 | 66 | 68 | 9.0 | 11.0 | 0.00 | 0.00 | 0.00 | 76 | 1015.4 |
| 20260507093836 | 66 | 28 | 6.0 | 10.0 | 0.00 | 0.00 | 0.00 | 77 | 1015.3 |
| 20260507093349 | 66 | 67 | 4.0 | 11.0 | 0.00 | 0.00 | 0.00 | 76 | 1015.2 |
| 20260507092834 | 66 | 61 | 6.0 | 12.0 | 0.00 | 0.00 | 0.00 | 76 | 1015.2 |
| 20260507092346 | 66 | 50 | 6.0 | 12.0 | 0.00 | 0.00 | 0.00 | 76 | 1015.2 |
| 20260507091340 | 66 | 80 | 5.0 | 9.0 | 0.00 | 0.00 | 0.00 | 74 | 1015.3 |
| 20260507090847 | 66 | 38 | 5.0 | 10.0 | 0.00 | 0.00 | 0.00 | 76 | 1015.2 |
| 20260507090338 | 65 | 73 | 6.0 | 10.0 | 0.00 | 0.00 | 0.00 | 76 | 1015.2 |
| 20260507085836 | 65 | 56 | 3.0 | 10.0 | 0.00 | 0.00 | 0.00 | 75 | 1015.2 |
| 20260507085331 | 65 | 100 | 4.0 | 11.0 | 0.00 | 0.00 | 0.00 | 76 | 1015.2 |
| 20260507084833 | 65 | 54 | 4.0 | 10.0 | 0.00 | 0.00 | 0.00 | 76 | 1015.2 |
| 20260507083847 | 65 | 63 | 4.0 | 9.0 | 0.00 | 0.00 | 0.00 | 76 | 1015.1 |
| 20260507083339 | 65 | 64 | 4.0 | 10.0 | 0.00 | 0.00 | 0.00 | 77 | 1015.2 |
| 20260507082338 | 64 | 75 | 5.0 | 11.0 | 0.00 | 0.00 | 0.00 | 78 | 1015.1 |
| 20260507081339 | 64 | 35 | 4.0 | 9.0 | 0.00 | 0.00 | 0.00 | 78 | 1015.1 |
| 20260507080844 | 64 | 100 | 4.0 | 16.0 | 0.00 | 0.00 | 0.00 | 77 | 1015.0 |
| 20260507080334 | 64 | 96 | 6.0 | 16.0 | 0.00 | 0.00 | 0.00 | 78 | 1015.1 |
| 20260507075831 | 64 | 64 | 5.0 | 8.0 | 0.00 | 0.00 | 0.00 | 78 | 1015.0 |
| 20260507075343 | 64 | 88 | 3.0 | 8.0 | 0.00 | 0.00 | 0.00 | 80 | 1015.0 |
| 20260507074848 | 64 | 48 | 3.0 | 10.0 | 0.00 | 0.00 | 0.00 | 80 | 1015.0 |
| 20260507074340 | 64 | 74 | 6.0 | 10.0 | 0.00 | 0.00 | 0.00 | 79 | 1015.0 |
| 20260507073343 | 64 | 37 | 4.0 | 11.0 | 0.00 | 0.00 | 0.00 | 80 | 1014.9 |
| 20260507072848 | 63 | 48 | 6.0 | 8.0 | 0.00 | 0.00 | 0.00 | 79 | 1014.9 |
| 20260507072341 | 63 | 75 | 5.0 | 9.0 | 0.00 | 0.00 | 0.00 | 80 | 1014.9 |
| 20260507071847 | 63 | 17 | 4.0 | 7.0 | 0.00 | 0.00 | 0.00 | 81 | 1014.9 |
| 20260507071339 | 63 | 57 | 4.0 | 8.0 | 0.00 | 0.00 | 0.00 | 81 | 1014.9 |
| 20260507070828 | 63 | 40 | 5.0 | 10.0 | 0.00 | 0.00 | 0.00 | 82 | 1014.9 |
| 20260507070342 | 63 | 67 | 5.0 | 10.0 | 0.00 | 0.00 | 0.00 | 82 | 1015.0 |
| 20260507065839 | 63 | 69 | 5.0 | 11.0 | 0.00 | 0.00 | 0.00 | 82 | 1014.9 |
| 20260507065349 | 63 | 77 | 3.0 | 10.0 | 0.00 | 0.00 | 0.00 | 83 | 1014.9 |
| 20260507064833 | 63 | 34 | 6.0 | 10.0 | 0.00 | 0.00 | 0.00 | 83 | 1014.9 |
| 20260507064328 | 63 | 36 | 4.0 | 8.0 | 0.00 | 0.00 | 0.00 | 83 | 1015.0 |
| 20260507063833 | 63 | 28 | 3.0 | 8.0 | 0.00 | 0.00 | 0.00 | 84 | 1015.0 |
| 20260507063345 | 63 | 75 | 3.0 | 8.0 | 0.00 | 0.00 | 0.00 | 84 | 1015.0 |
| 20260507062832 | 62 | 67 | 2.0 | 8.0 | 0.00 | 0.00 | 0.00 | 85 | 1014.9 |
| 20260507062345 | 62 | 32 | 4.0 | 9.0 | 0.00 | 0.00 | 0.00 | 85 | 1015.0 |
| 20260507061832 | 62 | 59 | 3.0 | 8.0 | 0.00 | 0.00 | 0.00 | 85 | 1015.0 |
| 20260507060342 | 61 | 48 | 2.0 | 4.0 | 0.00 | 0.00 | 0.00 | 86 | 1014.9 |
| 20260507055330 | 60 | 51 | 2.0 | 6.0 | 0.00 | 0.00 | 0.00 | 87 | 1014.8 |
| 20260507054838 | 59 | 2 | 0.0 | 1.0 | 0.00 | 0.00 | 0.00 | 84 | 1014.8 |
| 20260507054331 | 59 | 2 | 0.0 | 2.0 | 0.00 | 0.00 | 0.00 | 84 | 1014.6 |
| 20260507053835 | 59 | 2 | 0.0 | 2.0 | 0.00 | 0.00 | 0.00 | 86 | 1014.6 |
| 20260507053332 | 58 | 7 | 0.0 | 3.0 | 0.00 | 0.00 | 0.00 | 86 | 1014.5 |
| 20260507052839 | 57 | 350 | 1.0 | 3.0 | 0.00 | 0.00 | 0.00 | 85 | 1014.5 |
| 20260507052332 | 57 | 298 | 0.0 | 0.0 | 0.00 | 0.00 | 0.00 | 85 | 1014.5 |
| 20260507051838 | 57 | 298 | 0.0 | 0.0 | 0.00 | 0.00 | 0.00 | 84 | 1014.4 |
| 20260507051349 | 57 | 298 | 0.0 | 0.0 | 0.00 | 0.00 | 0.00 | 84 | 1014.3 |
| 20260507050836 | 57 | 298 | 0.0 | 0.0 | 0.00 | 0.00 | 0.00 | 84 | 1014.2 |
| 20260507050347 | 57 | 298 | 0.0 | 0.0 | 0.00 | 0.00 | 0.00 | 84 | 1014.3 |
| 20260507045843 | 57 | 298 | 0.0 | 0.0 | 0.00 | 0.00 | 0.00 | 84 | 1014.1 |
| 20260507045334 | 57 | 298 | 0.0 | 0.0 | 0.00 | 0.00 | 0.00 | 83 | 1014.0 |
| 20260507044841 | 57 | 298 | 0.0 | 0.0 | 0.00 | 0.00 | 0.00 | 83 | 1014.0 |
| 20260507044333 | 57 | 298 | 0.0 | 0.0 | 0.00 | 0.00 | 0.00 | 83 | 1014.0 |
| 20260507043838 | 57 | 298 | 0.0 | 0.0 | 0.00 | 0.00 | 0.00 | 83 | 1014.1 |
| 20260507043331 | 57 | 298 | 0.0 | 0.0 | 0.00 | 0.00 | 0.00 | 83 | 1014.1 |
| 20260507042838 | 57 | 298 | 0.0 | 0.0 | 0.00 | 0.00 | 0.00 | 83 | 1014.1 |
| 20260507042331 | 57 | 298 | 0.0 | 0.0 | 0.00 | 0.00 | 0.00 | 83 | 1014.2 |
| 20260507041835 | 57 | 298 | 0.0 | 0.0 | 0.00 | 0.00 | 0.00 | 83 | 1014.2 |
| 20260507041346 | 57 | 298 | 0.0 | 0.0 | 0.00 | 0.00 | 0.00 | 82 | 1014.2 |
| 20260507040835 | 57 | 298 | 0.0 | 0.0 | 0.00 | 0.00 | 0.00 | 82 | 1014.2 |
| 20260507040346 | 57 | 298 | 0.0 | 0.0 | 0.00 | 0.00 | 0.00 | 82 | 1014.2 |
| 20260507035843 | 57 | 298 | 0.0 | 0.0 | 0.00 | 0.00 | 0.00 | 82 | 1014.1 |
| 20260507034845 | 57 | 298 | 0.0 | 0.0 | 0.00 | 0.00 | 0.00 | 81 | 1014.1 |
| 20260507034338 | 57 | 298 | 0.0 | 0.0 | 0.00 | 0.00 | 0.00 | 81 | 1014.2 |
| 20260507033845 | 57 | 298 | 0.0 | 0.0 | 0.00 | 0.00 | 0.00 | 80 | 1014.1 |
| 20260507033336 | 57 | 298 | 0.0 | 0.0 | 0.00 | 0.00 | 0.00 | 80 | 1014.1 |
| 20260507032841 | 57 | 298 | 0.0 | 0.0 | 0.00 | 0.00 | 0.00 | 80 | 1014.0 |
| 20260507032331 | 57 | 298 | 0.0 | 0.0 | 0.00 | 0.00 | 0.00 | 80 | 1014.0 |
| 20260507031837 | 57 | 298 | 0.0 | 0.0 | 0.00 | 0.00 | 0.00 | 80 | 1014.0 |
| 20260507031349 | 57 | 298 | 0.0 | 0.0 | 0.00 | 0.00 | 0.00 | 79 | 1014.0 |
| 20260507030348 | 57 | 298 | 0.0 | 0.0 | 0.00 | 0.00 | 0.00 | 79 | 1014.0 |
| 20260507025845 | 57 | 298 | 0.0 | 0.0 | 0.00 | 0.00 | 0.00 | 79 | 1013.9 |
| 20260507025338 | 57 | 298 | 0.0 | 0.0 | 0.00 | 0.00 | 0.00 | 79 | 1014.0 |
| 20260507024843 | 57 | 298 | 0.0 | 0.0 | 0.00 | 0.00 | 0.00 | 79 | 1013.9 |
| 20260507024333 | 57 | 298 | 0.0 | 0.0 | 0.00 | 0.00 | 0.00 | 79 | 1013.9 |
| 20260507023331 | 57 | 298 | 0.0 | 0.0 | 0.00 | 0.00 | 0.00 | 79 | 1013.9 |
| 20260507022837 | 57 | 298 | 0.0 | 0.0 | 0.00 | 0.00 | 0.00 | 79 | 1013.9 |
| 20260507022333 | 57 | 298 | 0.0 | 0.0 | 0.00 | 0.00 | 0.00 | 79 | 1013.8 |
| 20260507021840 | 57 | 298 | 0.0 | 0.0 | 0.00 | 0.00 | 0.00 | 79 | 1013.7 |
| 20260507021332 | 57 | 298 | 0.0 | 0.0 | 0.00 | 0.00 | 0.00 | 79 | 1013.7 |
| 20260507020840 | 57 | 298 | 0.0 | 0.0 | 0.00 | 0.00 | 0.00 | 80 | 1013.7 |
| 20260507020331 | 57 | 298 | 0.0 | 0.0 | 0.00 | 0.00 | 0.00 | 80 | 1013.7 |
| 20260507015846 | 57 | 298 | 0.0 | 0.0 | 0.00 | 0.00 | 0.00 | 80 | 1013.7 |
| 20260507015338 | 57 | 298 | 0.0 | 0.0 | 0.00 | 0.00 | 0.00 | 80 | 1013.8 |
| 20260507014334 | 57 | 298 | 0.0 | 0.0 | 0.00 | 0.00 | 0.00 | 80 | 1013.8 |
| 20260507013837 | 57 | 298 | 0.0 | 0.0 | 0.00 | 0.00 | 0.00 | 80 | 1013.8 |
| 20260507013330 | 57 | 298 | 0.0 | 0.0 | 0.00 | 0.00 | 0.00 | 79 | 1013.9 |
| 20260507012839 | 57 | 298 | 0.0 | 0.0 | 0.00 | 0.00 | 0.00 | 79 | 1013.9 |
| 20260507012349 | 57 | 298 | 0.0 | 0.0 | 0.00 | 0.00 | 0.00 | 78 | 1014.0 |
| 20260507011346 | 58 | 298 | 0.0 | 0.0 | 0.00 | 0.00 | 0.00 | 76 | 1014.0 |
| 20260507010833 | 58 | 298 | 0.0 | 0.0 | 0.00 | 0.00 | 0.00 | 76 | 1014.0 |
| 20260507005844 | 58 | 298 | 0.0 | 0.0 | 0.00 | 0.00 | 0.00 | 77 | 1013.9 |
| 20260507005336 | 58 | 298 | 0.0 | 0.0 | 0.00 | 0.00 | 0.00 | 78 | 1014.0 |
| 20260507004844 | 57 | 298 | 0.0 | 0.0 | 0.00 | 0.00 | 0.00 | 78 | 1014.0 |
| 20260507004335 | 58 | 298 | 0.0 | 0.0 | 0.00 | 0.00 | 0.00 | 78 | 1014.0 |
| 20260507003839 | 58 | 298 | 0.0 | 0.0 | 0.00 | 0.00 | 0.00 | 78 | 1014.0 |
| 20260507003333 | 58 | 298 | 0.0 | 0.0 | 0.00 | 0.00 | 0.00 | 77 | 1014.0 |
| 20260507002840 | 58 | 298 | 0.0 | 0.0 | 0.00 | 0.00 | 0.00 | 77 | 1013.9 |
| 20260507002331 | 58 | 298 | 0.0 | 0.0 | 0.00 | 0.00 | 0.00 | 76 | 1013.9 |
| 20260507001838 | 58 | 298 | 0.0 | 0.0 | 0.00 | 0.00 | 0.00 | 76 | 1014.0 |
| 20260507001349 | 59 | 298 | 0.0 | 2.0 | 0.00 | 0.00 | 0.00 | 75 | 1014.0 |
| 20260507000833 | 59 | 298 | 1.0 | 2.0 | 0.00 | 0.00 | 0.00 | 74 | 1014.1 |